TUI7GT EDDB-EDDL

Flight info

Callsign TUI7GT
Flight time 0h 54m
Altitude 34000
Route SUKIP4N SUKIP Y206 BUREL P203 HLZ L980 SAS DCT PIROT T851 HALME HALME1A
Aircraft B738/M-SDE2E3FGHIRWXY/LB1

Departure

Time 2026-05-07 19:28
Airport Berlin Brandenburg Airport (EDDB)

Arrival

Time 2026-05-07 20:22
Airport Düsseldorf Airport (EDDL)
Time Latitude Longitude Altitude Speed Heading
2026-05-07 18:58 52.36747 13.50564 166 ft 0 kts 158°
2026-05-07 19:18 52.36748 13.50564 166 ft 1 kts 158°
2026-05-07 19:18 52.36761 13.50555 166 ft 2 kts 158°
2026-05-07 19:18 52.36775 13.50546 166 ft 2 kts 158°
2026-05-07 19:19 52.36790 13.50537 166 ft 2 kts 168°
2026-05-07 19:19 52.36805 13.50537 166 ft 2 kts 193°
2026-05-07 19:19 52.36818 13.50546 166 ft 2 kts 215°
2026-05-07 19:19 52.36829 13.50563 166 ft 2 kts 236°
2026-05-07 19:20 52.36833 13.50576 166 ft 1 kts 249°
2026-05-07 19:20 52.36835 13.50584 166 ft 0 kts 249°
2026-05-07 19:20 52.36835 13.50583 166 ft 0 kts 249°
2026-05-07 19:22 52.36834 13.50583 166 ft 0 kts 249°
2026-05-07 19:22 52.36832 13.50574 166 ft 1 kts 249°
2026-05-07 19:22 52.36823 13.50533 166 ft 5 kts 249°
2026-05-07 19:22 52.36806 13.50459 166 ft 8 kts 248°
2026-05-07 19:23 52.36785 13.50369 166 ft 7 kts 249°
2026-05-07 19:23 52.36770 13.50305 166 ft 6 kts 249°
2026-05-07 19:23 52.36748 13.50215 166 ft 9 kts 247°
2026-05-07 19:23 52.36727 13.50103 166 ft 10 kts 274°
2026-05-07 19:24 52.36776 13.50029 166 ft 8 kts 317°
2026-05-07 19:24 52.36771 13.49910 166 ft 13 kts 248°
2026-05-07 19:24 52.36733 13.49741 166 ft 17 kts 251°
2026-05-07 19:24 52.36686 13.49544 166 ft 19 kts 248°
2026-05-07 19:25 52.36635 13.49334 166 ft 20 kts 248°
2026-05-07 19:25 52.36582 13.49110 166 ft 21 kts 248°
2026-05-07 19:25 52.36525 13.48870 166 ft 22 kts 249°
2026-05-07 19:25 52.36474 13.48654 166 ft 17 kts 248°
2026-05-07 19:26 52.36436 13.48473 166 ft 15 kts 268°
2026-05-07 19:26 52.36504 13.48380 166 ft 12 kts 338°
2026-05-07 19:26 52.36590 13.48326 166 ft 14 kts 340°
2026-05-07 19:26 52.36693 13.48266 166 ft 9 kts 348°
2026-05-07 19:27 52.36723 13.48306 166 ft 7 kts 68°
2026-05-07 19:27 52.36805 13.48649 166 ft 67 kts 68°
2026-05-07 19:27 52.37054 13.49703 167 ft 130 kts 68°
2026-05-07 19:27 52.37433 13.51322 307 ft 165 kts 69°
2026-05-07 19:28 52.37815 13.53053 947 ft 165 kts 71°
2026-05-07 19:28 52.38190 13.54859 1542 ft 169 kts 68°
2026-05-07 19:28 52.38617 13.56712 2015 ft 186 kts 67°
2026-05-07 19:28 52.39155 13.58801 2447 ft 208 kts 63°
2026-05-07 19:29 52.39726 13.61068 3113 ft 222 kts 62°
2026-05-07 19:29 52.40651 13.63083 3834 ft 233 kts 32°
2026-05-07 19:29 52.42162 13.64055 4652 ft 244 kts 15°
2026-05-07 19:29 52.43850 13.64864 5003 ft 259 kts 18°
2026-05-07 19:30 52.45620 13.65908 5567 ft 278 kts 21°
2026-05-07 19:30 52.47371 13.66981 6971 ft 267 kts 21°
2026-05-07 19:30 52.49104 13.68047 7909 ft 272 kts 20°
2026-05-07 19:30 52.50858 13.69054 8960 ft 272 kts 14°
2026-05-07 19:31 52.52766 13.69220 9824 ft 280 kts 351°
2026-05-07 19:31 52.54561 13.68066 10665 ft 287 kts 327°
2026-05-07 19:31 52.56002 13.65633 10924 ft 316 kts 300°
2026-05-07 19:31 52.56601 13.62039 11388 ft 336 kts 271°
2026-05-07 19:32 52.56281 13.58212 12040 ft 347 kts 259°
2026-05-07 19:32 52.55842 13.54243 12664 ft 358 kts 262°
2026-05-07 19:32 52.55464 13.50202 13588 ft 358 kts 262°
2026-05-07 19:32 52.55079 13.46140 14296 ft 365 kts 262°
2026-05-07 19:33 52.54689 13.42081 15083 ft 367 kts 261°
2026-05-07 19:33 52.54285 13.37911 15834 ft 371 kts 261°
2026-05-07 19:33 52.53877 13.33751 16546 ft 374 kts 261°
2026-05-07 19:33 52.53475 13.29675 17216 ft 379 kts 261°
2026-05-07 19:34 52.53107 13.25953 17878 ft 380 kts 261°
2026-05-07 19:34 52.52679 13.21638 18516 ft 385 kts 261°
2026-05-07 19:34 52.52243 13.17248 19204 ft 388 kts 261°
2026-05-07 19:34 52.51808 13.12899 19807 ft 392 kts 261°
2026-05-07 19:35 52.51366 13.08471 20420 ft 396 kts 261°
2026-05-07 19:35 52.50917 13.04009 21003 ft 400 kts 261°
2026-05-07 19:35 52.50463 12.99505 21599 ft 403 kts 261°
2026-05-07 19:35 52.50008 12.95012 22126 ft 407 kts 261°
2026-05-07 19:36 52.49544 12.90442 22666 ft 410 kts 261°
2026-05-07 19:36 52.49075 12.85852 23204 ft 413 kts 261°
2026-05-07 19:36 52.48595 12.81166 23697 ft 417 kts 261°
2026-05-07 19:36 52.48111 12.76463 24188 ft 420 kts 261°
2026-05-07 19:37 52.47624 12.71739 24651 ft 424 kts 261°
2026-05-07 19:37 52.47129 12.66963 25099 ft 427 kts 261°
2026-05-07 19:37 52.46631 12.62179 25539 ft 431 kts 261°
2026-05-07 19:37 52.46126 12.57346 25964 ft 434 kts 261°
2026-05-07 19:38 52.45614 12.52470 26419 ft 437 kts 261°
2026-05-07 19:38 52.45097 12.47560 26826 ft 441 kts 261°
2026-05-07 19:38 52.44570 12.42587 27217 ft 444 kts 261°
2026-05-07 19:38 52.44045 12.37650 27595 ft 447 kts 261°
2026-05-07 19:39 52.43513 12.32672 27970 ft 450 kts 260°
2026-05-07 19:39 52.42988 12.27774 28324 ft 453 kts 260°
2026-05-07 19:39 52.42442 12.22709 28685 ft 456 kts 260°
2026-05-07 19:39 52.41891 12.17613 29017 ft 459 kts 260°
2026-05-07 19:40 52.41328 12.12430 29350 ft 461 kts 260°
2026-05-07 19:40 52.40767 12.07267 29713 ft 463 kts 260°
2026-05-07 19:40 52.40203 12.02094 30102 ft 464 kts 260°
2026-05-07 19:40 52.39635 11.96907 30529 ft 463 kts 259°
2026-05-07 19:41 52.39072 11.91803 30971 ft 462 kts 259°
2026-05-07 19:41 52.38498 11.86637 31336 ft 463 kts 259°
2026-05-07 19:41 52.37925 11.81485 31690 ft 461 kts 259°
2026-05-07 19:41 52.37357 11.76416 31931 ft 458 kts 259°
2026-05-07 19:42 52.36778 11.71288 32098 ft 456 kts 259°
2026-05-07 19:42 52.36206 11.66277 32102 ft 454 kts 259°
2026-05-07 19:42 52.35044 11.56122 32102 ft 452 kts 259°
2026-05-07 19:43 52.33897 11.46099 32102 ft 452 kts 259°
2026-05-07 19:43 52.32738 11.36016 32102 ft 452 kts 260°
2026-05-07 19:44 52.31639 11.26524 32104 ft 453 kts 259°
2026-05-07 19:44 52.30471 11.16535 32100 ft 453 kts 259°
2026-05-07 19:45 52.29288 11.06502 32481 ft 452 kts 259°
2026-05-07 19:45 52.28696 11.01505 32811 ft 453 kts 259°
2026-05-07 19:45 52.28099 10.96485 33055 ft 453 kts 259°
2026-05-07 19:46 52.27495 10.91433 33304 ft 453 kts 259°
2026-05-07 19:46 52.26892 10.86407 33554 ft 453 kts 259°
2026-05-07 19:46 52.26288 10.81393 33803 ft 452 kts 259°
2026-05-07 19:46 52.25698 10.76515 34036 ft 451 kts 259°
2026-05-07 19:47 52.24472 10.66433 34101 ft 450 kts 259°
2026-05-07 19:47 52.23258 10.56529 34102 ft 448 kts 259°
2026-05-07 19:48 52.22028 10.46563 34102 ft 447 kts 259°
2026-05-07 19:48 52.20800 10.36684 34101 ft 447 kts 259°
2026-05-07 19:49 52.19577 10.26923 34101 ft 447 kts 258°
2026-05-07 19:49 52.18334 10.17070 34026 ft 448 kts 258°
2026-05-07 19:50 52.17701 10.12074 33770 ft 450 kts 258°
2026-05-07 19:50 52.17068 10.07101 33519 ft 448 kts 258°
2026-05-07 19:50 52.16439 10.02175 33269 ft 446 kts 258°
2026-05-07 19:50 52.15812 9.97288 33021 ft 445 kts 258°
2026-05-07 19:51 52.15177 9.92345 32771 ft 446 kts 258°
2026-05-07 19:51 52.14548 9.87473 32525 ft 446 kts 258°
2026-05-07 19:51 52.13911 9.82558 32277 ft 446 kts 258°
2026-05-07 19:51 52.13282 9.77717 32032 ft 446 kts 258°
2026-05-07 19:52 52.12644 9.72821 31784 ft 446 kts 258°
2026-05-07 19:52 52.11999 9.67896 31535 ft 446 kts 258°
2026-05-07 19:52 52.11363 9.63050 31289 ft 446 kts 258°
2026-05-07 19:52 52.10716 9.58141 31040 ft 447 kts 258°
2026-05-07 19:53 52.10077 9.53306 30795 ft 447 kts 258°
2026-05-07 19:53 52.09422 9.48368 30545 ft 447 kts 258°
2026-05-07 19:53 52.08772 9.43483 30298 ft 447 kts 258°
2026-05-07 19:53 52.08118 9.38591 30051 ft 447 kts 258°
2026-05-07 19:54 52.07498 9.33962 29816 ft 447 kts 258°
2026-05-07 19:54 52.06847 9.29120 29571 ft 449 kts 258°
2026-05-07 19:54 52.06201 9.24332 29329 ft 450 kts 258°
2026-05-07 19:54 52.05528 9.19357 29079 ft 451 kts 257°
2026-05-07 19:55 52.04854 9.14401 28829 ft 453 kts 257°
2026-05-07 19:55 52.04184 9.09480 28581 ft 452 kts 257°
2026-05-07 19:55 52.03506 9.04521 28332 ft 452 kts 257°
2026-05-07 19:55 52.02830 8.99595 28084 ft 452 kts 257°
2026-05-07 19:56 52.02148 8.94639 27834 ft 452 kts 257°
2026-05-07 19:56 52.01465 8.89692 27586 ft 453 kts 257°
2026-05-07 19:56 52.00768 8.84666 27333 ft 452 kts 257°
2026-05-07 19:56 52.00084 8.79744 27086 ft 452 kts 257°
2026-05-07 19:57 51.99393 8.74790 26837 ft 452 kts 257°
2026-05-07 19:57 51.98699 8.69832 26587 ft 452 kts 257°
2026-05-07 19:57 51.98016 8.64883 26337 ft 451 kts 258°
2026-05-07 19:57 51.97146 8.59973 26081 ft 452 kts 249°
2026-05-07 19:58 51.95908 8.55437 25844 ft 452 kts 245°
2026-05-07 19:58 51.94550 8.50786 25591 ft 452 kts 245°
2026-05-07 19:58 51.93257 8.46220 25344 ft 451 kts 246°
2026-05-07 19:58 51.91962 8.41572 25126 ft 448 kts 246°
2026-05-07 19:59 51.90701 8.37033 25097 ft 446 kts 246°
2026-05-07 19:59 51.89528 8.32807 25104 ft 447 kts 246°
2026-05-07 19:59 51.88284 8.28314 25101 ft 449 kts 246°
2026-05-07 19:59 51.87060 8.23893 25080 ft 448 kts 246°
2026-05-07 20:00 51.85839 8.19480 24819 ft 435 kts 246°
2026-05-07 20:00 51.84629 8.15110 24570 ft 417 kts 246°
2026-05-07 20:00 51.83475 8.10945 24322 ft 400 kts 246°
2026-05-07 20:00 51.82357 8.06916 24072 ft 388 kts 246°
2026-05-07 20:01 51.81273 8.03013 23829 ft 388 kts 246°
2026-05-07 20:01 51.80179 7.99075 23584 ft 390 kts 246°
2026-05-07 20:01 51.79065 7.95074 23333 ft 389 kts 246°
2026-05-07 20:01 51.77967 7.91133 23086 ft 387 kts 246°
2026-05-07 20:02 51.76865 7.87181 22836 ft 386 kts 246°
2026-05-07 20:02 51.75768 7.83256 22586 ft 384 kts 246°
2026-05-07 20:02 51.74673 7.79342 22336 ft 383 kts 246°
2026-05-07 20:02 51.73582 7.75448 21937 ft 376 kts 246°
2026-05-07 20:03 51.72519 7.71665 21395 ft 370 kts 246°
2026-05-07 20:03 51.71468 7.67924 20831 ft 369 kts 246°
2026-05-07 20:03 51.70403 7.64140 20248 ft 370 kts 246°
2026-05-07 20:03 51.69340 7.60373 19662 ft 365 kts 246°
2026-05-07 20:04 51.68309 7.56723 19095 ft 360 kts 246°
2026-05-07 20:04 51.67278 7.53078 18526 ft 356 kts 246°
2026-05-07 20:04 51.66253 7.49463 17961 ft 351 kts 246°
2026-05-07 20:04 51.65250 7.45930 17404 ft 347 kts 246°
2026-05-07 20:05 51.64246 7.42397 16850 ft 349 kts 246°
2026-05-07 20:05 51.63237 7.38851 16284 ft 348 kts 246°
2026-05-07 20:05 51.62236 7.35337 15723 ft 344 kts 246°
2026-05-07 20:05 51.61270 7.31956 15184 ft 340 kts 245°
2026-05-07 20:06 51.60291 7.28536 14634 ft 336 kts 245°
2026-05-07 20:06 51.59325 7.25163 14091 ft 332 kts 245°
2026-05-07 20:06 51.58357 7.21784 13561 ft 336 kts 245°
2026-05-07 20:06 51.57381 7.18386 13004 ft 333 kts 245°
2026-05-07 20:07 51.56410 7.15008 12449 ft 329 kts 245°
2026-05-07 20:07 51.55443 7.11687 11881 ft 330 kts 243°
2026-05-07 20:07 51.54218 7.08631 11300 ft 330 kts 233°
2026-05-07 20:07 51.52838 7.05731 10738 ft 328 kts 233°
2026-05-07 20:08 51.51498 7.02886 10469 ft 316 kts 233°
2026-05-07 20:08 51.50216 7.00157 10339 ft 301 kts 233°
2026-05-07 20:08 51.49001 6.97578 10161 ft 289 kts 233°
2026-05-07 20:08 51.47782 6.94991 9718 ft 288 kts 233°
2026-05-07 20:09 51.46598 6.92481 9322 ft 286 kts 233°
2026-05-07 20:09 51.45398 6.89928 9105 ft 277 kts 233°
2026-05-07 20:09 51.44269 6.87523 8953 ft 276 kts 233°
2026-05-07 20:10 51.41954 6.82644 8295 ft 274 kts 233°
2026-05-07 20:10 51.40813 6.80248 7955 ft 272 kts 233°
2026-05-07 20:10 51.39681 6.77867 7616 ft 272 kts 233°
2026-05-07 20:10 51.38555 6.75499 7277 ft 270 kts 233°
2026-05-07 20:11 51.37434 6.73141 6941 ft 269 kts 233°
2026-05-07 20:11 51.36314 6.70788 6604 ft 268 kts 233°
2026-05-07 20:11 51.35191 6.68432 6268 ft 267 kts 233°
2026-05-07 20:11 51.34074 6.66088 5925 ft 267 kts 233°
2026-05-07 20:12 51.32967 6.63768 5516 ft 268 kts 233°
2026-05-07 20:12 51.31832 6.61393 5234 ft 263 kts 233°
2026-05-07 20:12 51.30755 6.59141 5006 ft 257 kts 233°
2026-05-07 20:12 51.29678 6.56887 4764 ft 251 kts 233°
2026-05-07 20:13 51.28653 6.54707 4608 ft 243 kts 233°
2026-05-07 20:13 51.27651 6.52572 4455 ft 235 kts 233°
2026-05-07 20:13 51.26689 6.50526 4304 ft 228 kts 233°
2026-05-07 20:13 51.25754 6.48533 4155 ft 223 kts 233°
2026-05-07 20:14 51.24829 6.46561 4020 ft 221 kts 233°
2026-05-07 20:14 51.23904 6.44591 3994 ft 221 kts 233°
2026-05-07 20:14 51.22981 6.42625 3996 ft 222 kts 233°
2026-05-07 20:14 51.22060 6.40665 3993 ft 222 kts 233°
2026-05-07 20:15 51.21087 6.38760 3988 ft 222 kts 221°
2026-05-07 20:15 51.19741 6.37668 3989 ft 220 kts 188°
2026-05-07 20:15 51.18248 6.37925 3994 ft 217 kts 154°
2026-05-07 20:15 51.16988 6.39211 4008 ft 216 kts 142°
2026-05-07 20:16 51.15800 6.40651 3991 ft 215 kts 135°
2026-05-07 20:16 51.15008 6.42628 3981 ft 210 kts 103°
2026-05-07 20:16 51.14973 6.44913 4004 ft 209 kts 82°
2026-05-07 20:16 51.15203 6.47222 3995 ft 210 kts 77°
2026-05-07 20:17 51.15748 6.49283 3983 ft 196 kts 56°
2026-05-07 20:17 51.16471 6.51034 3945 ft 181 kts 58°
2026-05-07 20:17 51.17179 6.52649 3719 ft 177 kts 53°
2026-05-07 20:17 51.17894 6.54170 3522 ft 169 kts 53°
2026-05-07 20:18 51.18600 6.55647 3275 ft 164 kts 53°
2026-05-07 20:18 51.19278 6.57060 3054 ft 156 kts 53°
2026-05-07 20:18 51.19918 6.58393 2828 ft 148 kts 53°
2026-05-07 20:18 51.20524 6.59654 2649 ft 137 kts 53°
2026-05-07 20:19 51.21088 6.60832 2475 ft 131 kts 53°
2026-05-07 20:19 51.21648 6.61999 2346 ft 136 kts 53°
2026-05-07 20:19 51.22231 6.63211 2122 ft 136 kts 52°
2026-05-07 20:19 51.22808 6.64397 1884 ft 134 kts 53°
2026-05-07 20:20 51.23362 6.65567 1714 ft 134 kts 53°
2026-05-07 20:20 51.23935 6.66766 1518 ft 136 kts 52°
2026-05-07 20:20 51.24501 6.67943 1337 ft 134 kts 52°
2026-05-07 20:20 51.25072 6.69143 1134 ft 134 kts 53°
2026-05-07 20:21 51.25629 6.70321 961 ft 133 kts 52°
2026-05-07 20:21 51.26183 6.71485 808 ft 132 kts 52°
2026-05-07 20:21 51.26744 6.72652 641 ft 132 kts 52°
2026-05-07 20:21 51.27301 6.73821 456 ft 132 kts 52°
2026-05-07 20:22 51.27860 6.74990 284 ft 131 kts 52°
2026-05-07 20:22 51.28399 6.76121 155 ft 116 kts 53°
2026-05-07 20:22 51.28757 6.76873 154 ft 56 kts 53°
2026-05-07 20:22 51.28950 6.77276 154 ft 34 kts 53°
2026-05-07 20:23 51.29018 6.77440 154 ft 13 kts 67°
2026-05-07 20:23 51.29016 6.77559 154 ft 8 kts 126°
2026-05-07 20:23 51.28976 6.77612 154 ft 7 kts 143°
2026-05-07 20:23 51.28918 6.77660 154 ft 10 kts 196°
2026-05-07 20:24 51.28854 6.77543 154 ft 16 kts 233°
2026-05-07 20:24 51.28778 6.77382 154 ft 19 kts 232°
2026-05-07 20:24 51.28691 6.77198 154 ft 21 kts 232°
2026-05-07 20:24 51.28597 6.77000 154 ft 22 kts 233°
2026-05-07 20:25 51.28504 6.76807 154 ft 20 kts 232°
2026-05-07 20:25 51.28416 6.76622 154 ft 20 kts 233°
2026-05-07 20:25 51.28326 6.76433 154 ft 21 kts 232°
2026-05-07 20:25 51.28234 6.76241 154 ft 21 kts 233°
2026-05-07 20:26 51.28147 6.76059 154 ft 19 kts 228°
2026-05-07 20:26 51.28055 6.76048 154 ft 10 kts 184°
2026-05-07 20:26 51.27991 6.76046 154 ft 9 kts 180°
2026-05-07 20:26 51.27911 6.76046 154 ft 13 kts 180°
2026-05-07 20:27 51.27851 6.76112 154 ft 9 kts 88°
2026-05-07 20:27 51.27883 6.76182 154 ft 6 kts 58°
2026-05-07 20:27 51.27903 6.76237 154 ft 3 kts 62°
2026-05-07 20:27 51.27905 6.76245 154 ft 0 kts 62°